Weather Roundup
Issued by NWS

Home | Current Version | Previous Version | Graphics & Text | Print | Product List | Glossary Off
Versions: 1 2 3 4 5 6 7 8 9 10 11 12 13 14 15 16 17 18 19 20 21 22 23 24 25 26 27 28 29 30 31 32 33 34 35 36 37 38 39 40 41 42 43 44 45 46 47 48 49 50

384
NZUS93 KARX 251010
HRRWXR

CURRENT HOURLY OBSERVATIONS ACROSS
MUCH OF THE UPPER MISSISSIPPI VALLEY
NATIONAL WEATHER SERVICE LA CROSSE WI
500 AM CDT FRI MAY 25 2018


...SOUTHEAST MINNESOTA...


CITY           SKY/WX    TMP DP  RH WIND       PRES   REMARKS
ROCHESTER      FAIR      66  61  84 S8        29.87F
ROCHESTER/MAYO FAIR      70  61  72 S8        29.87F
WINONA         FAIR      64  63  94 CALM      29.86F
AUSTIN         FAIR      68  61  77 S5        29.86F
ALBERT LEA     FAIR      70  61  73 S7        29.85F
DODGE CENTER   FAIR      70  61  73 S13       29.86F
PRESTON        FAIR      67  61  81 S8        29.89F
OWATONNA       FAIR      68  63  83 N9        29.86R
FARIBAULT      FAIR      70  63  78 CALM      29.85F
$$

...ELSEWHERE IN MINNESOTA...


CITY           SKY/WX    TMP DP  RH WIND       PRES   REMARKS
MINNEAPOLIS    CLOUDY    67  64  90 SE14G25   29.82F
INTNL FALLS    FAIR      62  62 100 S5        29.66F
DULUTH         FAIR      67  60  78 SW14      29.77F
RED WING       CLOUDY    66  63  88 NE13G20   29.88R
REDWOOD FALLS  CLOUDY    66  64  93 S3        29.79F
MANKATO        CLOUDY    71  64  78 SE8       29.82F
WORTHINGTON    CLOUDY    70  64  81 S14       29.84F
FAIRMONT       PTCLDY    70  64  81 S13       29.84S
$$

...SOUTHWEST WISCONSIN...


CITY           SKY/WX    TMP DP  RH WIND       PRES   REMARKS
LA CROSSE      FAIR      72  65  78 S10       29.86F
PRAIRIE DU CHI FAIR      68  60  75 CALM      29.89F HAZE
BOSCOBEL       FAIR      62  60  93 CALM      29.90F
LONE ROCK      FAIR      65  61  87 CALM      29.90F
PLATTEVILLE    FAIR      66  62  85 S6        29.93F
FORT MC COY    FAIR      59  59  97 CALM      29.89S
CAMP DOUGLAS   FAIR      65  62  92 CALM      29.88F
MAUSTON-NEW LI FAIR      71  62  72 S8        29.88F
VIROQUA        FAIR      69  64  84 S8        29.91F
WIS DELLS      FAIR      68  58  69 SW6       29.91F
$$

...ELSEWHERE IN WISCONSIN...


CITY           SKY/WX    TMP DP  RH WIND       PRES   REMARKS
MILWAUKEE      FAIR      66  54  65 SW7       29.93F
MADISON        FAIR      68  60  75 S7        29.92F
GREEN BAY      FAIR      68  60  75 SW5       29.88F
EAU CLAIRE     FAIR      64  63  96 SW7       29.85S
BLACK RVR FLS    N/A     60  60 100 CALM      29.88S FOG
MEDFORD        FAIR      65  57  76 SW6       29.86R
WAUSAU         FAIR      67  62  84 SW7       29.84F
WIS RAPIDS     FAIR      67  62  84 SW3       29.89F
MARSHFIELD     FAIR      62  61  96 SW6       29.88S
RICE LAKE      CLOUDY    66  62  87 SW17      29.89R
$$

...NORTHEAST IOWA...


CITY           SKY/WX    TMP DP  RH WIND       PRES   REMARKS
WATERLOO       FAIR      67  64  90 S6        29.88F
DUBUQUE        FAIR      65  59  81 S7        29.93F
DECORAH        FAIR      68  64  88 S7        29.88F
MASON CITY     CLOUDY    67  64  90 S9        29.88F
CHARLES CITY   FAIR      66  63  88 S6        29.89S
OELWEIN        CLOUDY    68  63  83 S8        29.91F
$$

...ELSEWHERE IN IOWA...


CITY           SKY/WX    TMP DP  RH WIND       PRES   REMARKS
DES MOINES     CLOUDY    68  65  90 S7        29.88F
IOWA CITY      FAIR      70  62  76 CALM      29.93F
FORT DODGE     NOT AVBL
MARSHALLTOWN   PTCLDY    68  66  93 SE6       29.88F
CEDAR RAPIDS   FAIR      70  62  76 S6        29.90F
$$

...NORTHERN ILLINOIS...


CITY           SKY/WX    TMP DP  RH WIND       PRES   REMARKS
CHICAGO-OHARE  FAIR      68  51  54 S6        29.96F
CHICAGO-MIDWAY FAIR      68  52  56 S6        29.96F
MOLINE         FAIR      71  60  68 S6        29.93F
ROCKFORD       FAIR      61  56  83 S6        29.96F
PEORIA         FAIR      66  60  81 CALM      29.97F
$$

NOTE: "FAIR" INDICATES FEW OR NO CLOUDS BELOW 12,000 FEET WITH NO
SIGNIFICANT WEATHER AND/OR OBSTRUCTIONS TO VISIBILITY. WIND
SPEEDS ARE IN MILES-PER-HOUR.




USA.gov is the U.S. government's official web portal to all federal, state and local government web resources and services.